Flag for Germany Weather past 2 weeks in Fürstenwalde/Spree, Brandenburg, Germany

Now
53 °F

Fog.


Feels Like: 53 °F
Forecast: 51 / 70 °F
Wind: 1 mph from Northeast

Location: Lindenberg


UV Index: 3 (Moderate)

Visibility: 0 mi


Pressure: 30.14 "Hg

Humidity: 99%

Dew point: 52 °F

Location of Fürstenwalde/SpreeLocation

Historic Weather in Fürstenwalde/Spree

°F

Fürstenwalde/Spree temperature yesterday

Maximum temperature yesterday: 65 °F (at 2:00 PM)
Minimum temperature yesterday: 51 °F (at 6:00 AM)
Average temperature yesterday: 58 °F

Past Weeks' High & Low Weather Summary

 TemperatureHumidityPressure
High69 °F (Apr 19, 4:00 PM)100% (Apr 23, 5:00 AM)30.43 "Hg (Apr 23, 5:00 AM)
Low33 °F (Apr 16, 7:00 AM)29% (Apr 16, 2:00 PM)29.69 "Hg (Apr 14, 1:00 PM)
Average50 °F75%30.00 "Hg
* Reported Apr 9 2:00 AM — Apr 24 2:00 AM, Fürstenwalde/Spree, Weather by CustomWeather, © 2014

Note: Actual official high and low records may vary slightly from our data, if they occured in-between our weather recording intervals... More about our weather records

Advertising

Historic Weather Conditions — Data for Previous 24 hours

 ConditionsComfort  
Time TempWeatherWind HumidityBarometerVisibility
2:00 AM
Apr 24
53 °FFog.2 mph99%30.12 "Hg1 mi
1:00 AM54 °FFog.3 mph98%30.13 "Hg1 mi
12:00 AM53 °FFog.2 mph99%30.13 "Hg2 mi
10:00 PM
Apr 23
56 °FFog.1 mph95%30.13 "Hg4 mi
9:00 PM59 °FFog.2 mph93%30.11 "Hg4 mi
8:00 PM59 °FPartly sunny.2 mph89%30.10 "Hg12 mi
7:00 PM62 °FPartly sunny.2 mph74%30.08 "Hg16 mi
6:00 PM62 °FPartly sunny.2 mph79%30.09 "Hg25 mi
5:00 PM62 °FPartly sunny.2 mph76%30.08 "Hg25 mi
4:00 PM64 °FPartly sunny.2 mph75%30.08 "Hg25 mi
3:00 PM63 °FSprinkles. Overcast.2 mph81%30.09 "Hg22 mi
2:00 PM65 °FOvercast.3 mph71%30.09 "Hg19 mi
1:00 PM64 °FPartly sunny.2 mph69%30.09 "Hg16 mi
12:00 PM62 °FOvercast.2 mph75%30.10 "Hg7 mi
11:00 AM60 °FLow clouds.2 mph83%30.10 "Hg7 mi
10:00 AM57 °FLow clouds.2 mph92%30.09 "Hg6 mi
9:00 AM55 °FOvercast.1 mph92%30.07 "Hg5 mi
8:00 AM53 °FFog.2 mph98%30.06 "Hg4 mi
7:00 AM51 °FOvercast.1 mph100%30.04 "Hg5 mi
6:00 AM51 °FFog.1 mph99%30.03 "Hg4 mi
5:00 AM52 °FOvercast.2 mph100%30.02 "Hg5 mi
4:00 AM53 °FClear.1 mph99%30.01 "Hg5 mi
3:00 AM54 °FPassing clouds.1 mph99%30.01 "Hg6 mi
Weather by CustomWeather, © 2014

See weather overview